Regional Weather Roundup
Issued by NWS

Home | Current Version | Previous Version | Graphics & Text | Print | Product List | Glossary Off
Versions: 1 2 3 4 5 6 7 8 9 10 11 12 13 14 15 16 17 18 19 20 21 22 23 24 25 26 27 28 29 30 31 32 33 34 35 36 37 38 39 40 41 42 43 44 45 46 47 48 49 50

000
ASUS43 KMPX 222110
RWRMN
WEATHER ROUNDUP FOR MINNESOTA
NATIONAL WEATHER SERVICE TWIN CITIES/CHANHASSEN MN
400 PM CDT SAT JUL 22 2017


NOTE: "FAIR" INDICATES FEW OR NO CLOUDS BELOW 12,000 FEET WITH NO
SIGNIFICANT WEATHER AND/OR OBSTRUCTIONS TO VISIBILITY. N/A MEANS
CURRENT SKY AND/OR WEATHER CONDITIONS ARE NOT AVAILABLE.

MNZ060>063-068>070-222200-
   Twin Cities Metro

CITY           SKY/WX    TMP DP  RH WIND       PRES   REMARKS
TWIN CITIES    MOSUNNY   89  67  47 NW12      29.80F HX  92
ST PAUL        PTSUNNY   88  67  49 NW16G22   29.80S HX  91
CRYSTAL        SUNNY     89  61  38 NW14      29.80S
BLAINE         MOSUNNY   90  64  43 NW8       29.82R HX  91
LAKEVILLE      MOSUNNY   86  72  62 NW7       29.82F HX  92
EDEN PRAIRIE   MOSUNNY   89  66  46 NW10      29.81S HX  91
SOUTH ST PAUL  MOSUNNY   86  67  53 W7        29.80S
LAKE ELMO      FAIR      88  70  55 NW8       29.82S HX  92
$$
MNZ001>005-007-008-013>017-022>024-027-028-222200-
   Northwest Minnesota

CITY           SKY/WX    TMP DP  RH WIND       PRES   REMARKS
BEMIDJI        SUNNY     79  53  40 W16       29.85S
HALLOCK        CLOUDY    75  59  57 W15G24    29.82S
ROSEAU         MOSUNNY   72  63  73 W10G22    29.80S
WARROAD        MOSUNNY   72  61  68 W13G24    29.80R
THIEF RVR FALL MOSUNNY   78  55  44 W17G25    29.85R
CROOKSTON      SUNNY     81  55  41 NW17G23   29.84S
FOSSTON        SUNNY     77  55  47 W13G20    29.86S
DETROIT LAKES  SUNNY     79  55  44 NW16      29.90R
MOORHEAD       SUNNY     82  55  39 NW14      29.87S
PARK RAPIDS    SUNNY     84  52  33 NW16G29   29.86R
MAHNOMEN       FAIR      78  60  53 NW12G20   29.87S
$$
MNZ006-009>011-018-025>026-222200-
   North Central Minnesota

CITY           SKY/WX    TMP DP  RH WIND       PRES   REMARKS
BAUDETTE       MOSUNNY   79  55  43 W16G24    29.78R
FLAG ISLAND    MOSUNNY   75  55  50 W14G20    29.74S HAZE
INTL FALLS     MOSUNNY   80  57  45 W8        29.76S
WASKISH        PTSUNNY   79  63  57 W13G18    29.81S
BIG FORK       MOSUNNY   79  61  53 W6        29.81S
LONGVILLE      MOSUNNY   82  59  44 W12G17    29.84S
GRAND RAPIDS   MOSUNNY   81  63  54 W10       29.83F
CRANE LAKE     SUNNY     77  64  65 N3        29.79F
ORR            MOSUNNY   81  61  50 NW6       29.76F
COOK           MOSUNNY   81  59  47 W8        29.79F
WALKER         FAIR      81  55  40 W12G20    29.85R
$$
MNZ012-019>021-037-222200-
   Northeast Minnesota

CITY           SKY/WX    TMP DP  RH WIND       PRES   REMARKS
DULUTH         MOSUNNY   70  61  73 SE12      29.83S
ELY            MOSUNNY   79  61  53 W7        29.80F
HIBBING        MOSUNNY   81  60  48 NW12G17   29.81S
EVELETH        MOSUNNY   80  51  36 W6        29.82F
DULUTH HARBOR  SUNNY     64  59  82 E9        29.84S
TWO HARBORS    SUNNY     72  61  68 E6        29.82F
SILVER BAY     SUNNY     66  55  68 E9        29.83F
GRAND MARAIS     N/A     58  52  80 NE9       29.84S
G MARAIS ARPRT CLOUDY    64  55  72 SE3       29.86S
$$
MNZ029>031-032-039>041-046>048-054>057-064-222200-
   West Central Minnesota

CITY           SKY/WX    TMP DP  RH WIND       PRES   REMARKS
FERGUS FALLS   SUNNY     81  63  54 NW14      29.87R
WHEATON        SUNNY     84  61  45 NW10      29.89S
MORRIS         SUNNY     88  61  40 N14G20    29.87S
ALEXANDRIA     SUNNY     83  66  56 NW15      29.90R
ELBOW LAKE     FAIR      81  62  53 W16       29.89S HAZE
WADENA         SUNNY     82  61  47 NW14G22   29.87S
GLENWOOD       SUNNY     84  66  54 NW16G22   29.89R
APPLETON       SUNNY     90  63  40 N12       29.86S HX  90
BENSON         MOSUNNY   88  66  48 N14G20    29.88S HX  90
ORTONVILLE     SUNNY     88  61  40 N13       29.88S
MADISON        MOSUNNY   91  64  40 N8        29.87S HX  93
WILLMAR        FAIR      86  68  54 NW12G21   29.88S
$$
MNZ033>034-036-042>043-049>051-058-059-222200-
   Central Minnesota

CITY           SKY/WX    TMP DP  RH WIND       PRES   REMARKS
ST CLOUD       MOSUNNY   86  68  54 NW9G17    29.84R
SAUK CENTRE    FAIR      84  64  50 NW15      29.87S
PAYNESVILLE    SUNNY     87  65  47 NW8G18    29.87S
AITKIN         MOSUNNY   81  64  57 W3        29.82S
PINE RIVER     SUNNY     82  61  47 NW9G16    29.88R
BRAINERD       SUNNY     84  60  44 NW12      29.84S
STAPLES        SUNNY     82  57  42 NW13G21   29.86S
LONG PRAIRIE   FAIR      82  63  51 W15G22    29.88S
LITTLE FALLS   SUNNY     82  57  42 W13       29.85S
LITCHFIELD     SUNNY     90  66  45 NW13G21   29.85S HX  92
BUFFALO        MOSUNNY   87  61  41 W12G17    29.84S
MAPLE LAKE     SUNNY     88  67  49 NW12      29.85S HX  91
HUTCHINSON     CLOUDY    86  70  57 NW13      29.86S HX  91
$$
MNZ037-044-045-052-053-222200-
   East Central Minnesota

CITY           SKY/WX    TMP DP  RH WIND       PRES   REMARKS
PRINCETON      SUNNY     88  66  48 W9        29.84R HX  90
MORA           MOSUNNY   79  64  61 N7G16     29.84S
CAMBRIDGE      MOSUNNY   88  70  55 W9        29.81S HX  92
RUSH CITY      MOSUNNY   86  67  53 NW5       29.82F
MOOSE LAKE     MOSUNNY   82  63  51 W3        29.80S
HINCKLEY       FAIR      82  68  61 CALM      29.82S
CLOQUET        SUNNY     75  64  69 E6        29.82F
MCGREGOR       MOSUNNY   82  63  51 N7        29.82F
$$
MNZ071>073-080-081-089-090-097-098-222200-
   Southwest Minnesota

CITY           SKY/WX    TMP DP  RH WIND       PRES   REMARKS
MONTEVIDEO     SUNNY     90  70  51 N12G18    29.87S HX  95
GRANITE FALLS  SUNNY     88  70  56 W9        29.89S HX  93
CANBY          SUNNY     93  53  25 W7        29.89S HX  91
MARSHALL       MOSUNNY   86  71  60 N9        29.89S HX  91
REDWOOD FALLS  MOSUNNY   87  66  49 NW9       29.86S
OLIVIA         SUNNY     86  68  54 NW12G17   29.86S
PIPESTONE      MOSUNNY   84  68  58 NW10      29.94S
WINDOM         SUNNY     86  68  54 NW12G20   29.89S
WORTHINGTON    SUNNY     85  69  58 NW14      29.92S
JACKSON        MOSUNNY   86  70  58 NW14G20   29.90S HX  90
SLAYTON        MOSUNNY   84  69  60 NW10      29.93S
$$
MNZ065>067-074>077-082>085-091>093-222200-
   South Central Minnesota

CITY           SKY/WX    TMP DP  RH WIND       PRES   REMARKS
MANKATO        PTSUNNY   84  72  67 NW13      29.85S
NEW ULM        SUNNY     84  70  61 NW15      29.86R
ST JAMES       MOSUNNY   84  73  70 NW7       29.88R HX  91
FAIRMONT       PTSUNNY   86  73  65 NW12      29.87R HX  93
GLENCOE        MOSUNNY   87  73  62 NW12      29.84S HX  94
FARIBAULT      MOSUNNY   86  72  62 W8        29.84F HX  92
OWATONNA       SUNNY     84  72  65 W8        29.85F
WASECA         MOSUNNY   82  72  69 W7        29.87S
ALBERT LEA     MOSUNNY   82  70  65 NW7       29.86S
$$
MNZ078>079-086>088-094>096-222200-
   Southeast Minnesota

CITY           SKY/WX    TMP DP  RH WIND       PRES   REMARKS
ROCHESTER      MOSUNNY   83  73  72 NW5       29.85F
RED WING       MOSUNNY   88  66  48 W5        29.80S HX  90
STANTON        MOSUNNY   87  70  57 W7        29.81F HX  91
DODGE CENTER   MOSUNNY   82  72  69 NW8       29.86S
WINONA         SUNNY     82  70  65 CALM      29.82S
AUSTIN         PTSUNNY   81  70  69 W8        29.86R
PRESTON        PTSUNNY   79  71  74 W5        29.86S
$$
ABBREVIATIONS USED IN REMARKS
   TC - TEMPERATURES IN CELSIUS
  WCI - WIND CHILL INDEX
   HX - HEAT INDEX
  VSB - VISIBILITY
$$



USA.gov is the U.S. government's official web portal to all federal, state and local government web resources and services.